Date String (YYYY-MM-DD hh:mm:ss) UTC,Instrument flags,absolute air pressure of the measurement (hPa),sample flow rate (lpm),inlet stack bypass flow (lpm),air temperature of the measurement (°C),ambient temperature measured by the external sensor (°C),aerosol sample conditioner tube jacket temperature (°C),OPC LED temperature (°C),internal box temperature (°C),relative humidity of the measurement (%),span deviation,mass concentration of particles derived from Lorenz-Mie calculation of OPC scattering (μg/m³),mass concentration of particles derived from Lorenz-Mie calculation of OPC scattering (μg/m³),mass concentration of particles derived from Lorenz-Mie calculation of OPC scattering (μg/m³)
DateTimeUTC,F1_M11,P_M11,Q1_M11,Q2_M11,T1_M11,T2_M11,T3_M11,T4_M11,T5_M11,U1_M11,ZSPAN_M11,X0_M11,X2_M11,X1_M11
2023-12-02 09:00:00,SystemResetWarning,0819.5,5.00,000.00,018.7,017.6,000.0,027.2,020.0,15.0,0002.6,0016.78,0010.70,0010.20
2023-12-02 09:01:00,SystemResetWarning,0819.4,5.00,000.00,018.7,017.6,000.0,027.2,020.0,15.0,0003.1,0017.48,0011.52,0011.00
2023-12-02 09:02:00,SystemResetWarning,0819.4,5.00,000.00,018.7,017.6,000.0,027.2,020.0,15.0,0003.0,0019.13,0012.36,0011.80
2023-12-02 09:03:00,SystemResetWarning,0819.4,4.99,000.00,018.7,017.6,000.0,027.2,020.0,14.9,0002.6,0020.85,0013.54,0012.90
2023-12-02 09:04:00,SystemResetWarning,0819.4,5.00,000.00,018.7,017.7,000.0,027.2,020.0,15.0,0002.9,0021.96,0014.56,0013.88
2023-12-02 09:05:00,SystemResetWarning,0819.5,5.00,000.00,018.7,017.7,000.0,027.2,020.0,15.0,0002.8,0022.60,0014.95,0014.24
2023-12-02 09:06:00,SystemResetWarning,0819.5,5.00,000.00,018.7,017.7,000.0,027.2,020.0,14.9,0002.8,0022.74,0014.96,0014.22
2023-12-02 09:07:00,SystemResetWarning,0819.5,5.01,000.00,018.7,017.7,000.0,027.2,020.0,14.7,0002.7,0022.75,0014.98,0014.23
2023-12-02 09:08:00,SystemResetWarning,0819.5,4.99,000.00,018.7,017.6,000.0,027.2,020.0,14.6,0002.3,0022.72,0014.94,0014.19
2023-12-02 09:09:00,SystemResetWarning,0819.5,4.99,000.00,018.7,017.6,000.0,027.2,020.0,14.6,0001.5,0021.99,0014.97,0014.19
2023-12-02 09:10:00,SystemResetWarning,0819.5,5.00,000.00,018.7,017.6,000.0,027.2,020.0,14.7,0001.7,0021.52,0015.02,0014.21
2023-12-02 09:11:00,SystemResetWarning,0819.4,5.00,000.00,018.7,017.6,000.0,027.2,020.0,14.6,0002.1,0021.33,0015.46,0014.55
2023-12-02 09:12:00,SystemResetWarning,0819.5,4.99,000.00,018.7,017.6,000.0,027.2,020.0,14.4,0002.1,0021.75,0015.79,0014.79
2023-12-02 09:13:00,SystemResetWarning,0819.5,5.00,000.00,018.7,017.6,000.0,027.2,020.0,14.3,0002.0,0021.04,0015.78,0014.76
2023-12-02 09:14:00,SystemResetWarning,0819.5,5.00,000.00,018.7,017.6,000.0,027.2,020.0,14.1,0002.3,0020.46,0015.58,0014.55
2023-12-02 09:15:00,SystemResetWarning,0819.5,5.00,000.00,018.7,017.6,000.0,027.2,020.0,13.9,0002.1,0020.17,0015.31,0014.25
2023-12-02 09:16:00,SystemResetWarning,0819.6,5.01,000.00,018.7,017.6,000.0,027.2,020.0,14.1,0001.8,0019.95,0015.16,0014.09
2023-12-02 09:17:00,SystemResetWarning,0819.5,5.00,000.00,018.7,017.6,000.0,027.2,020.0,14.1,0001.5,0020.12,0015.10,0014.03
2023-12-02 09:18:00,SystemResetWarning,0819.4,5.00,000.00,018.7,017.6,000.0,027.2,020.0,14.4,0001.5,0019.89,0014.84,0013.80
2023-12-02 09:19:00,SystemResetWarning,0819.5,5.00,000.00,018.7,017.6,000.0,027.2,020.0,14.9,0001.5,0020.37,0014.59,0013.52
2023-12-02 09:20:00,SystemResetWarning,0819.4,5.00,000.00,018.7,017.6,000.0,027.2,020.0,15.4,0001.5,0020.49,0014.17,0013.16
2023-12-02 09:21:00,SystemResetWarning,0819.4,4.99,000.00,018.7,017.6,000.0,027.2,020.0,15.5,0001.2,0020.90,0013.76,0012.76
2023-12-02 09:22:00,SystemResetWarning,0819.5,5.00,000.00,018.7,017.6,000.0,027.2,020.0,15.7,0001.0,0020.54,0013.20,0012.28
2023-12-02 09:23:00,SystemResetWarning,0819.5,5.00,000.00,018.7,017.6,000.0,027.2,020.0,15.8,0000.3,0020.46,0012.84,0011.98
2023-12-02 09:24:00,SystemResetWarning,0819.5,5.00,000.00,018.7,017.6,000.0,027.2,020.0,15.8,0000.3,0020.86,0012.63,0011.77
2023-12-02 09:25:00,SystemResetWarning,0819.5,5.01,000.00,018.7,017.6,000.0,027.2,020.0,16.0,0000.3,0021.22,0012.75,0011.89
2023-12-02 09:26:00,SystemResetWarning,0819.5,5.01,000.00,018.7,017.6,000.0,027.2,020.0,16.2,0000.5,0021.74,0013.20,0012.33
2023-12-02 09:27:00,SystemResetWarning,0819.4,5.00,000.00,018.7,017.6,000.0,027.2,020.0,16.4,0001.1,0022.41,0013.90,0013.03
2023-12-02 09:28:00,SystemResetWarning,0819.5,5.00,000.00,018.7,017.6,000.0,027.2,020.0,16.6,0001.2,0022.59,0014.33,0013.45
2023-12-02 09:29:00,SystemResetWarning,0819.5,5.01,000.00,018.7,017.6,000.0,027.2,020.0,16.7,0001.2,0023.38,0015.01,0014.11
2023-12-02 09:30:00,SystemResetWarning,0819.7,5.00,000.00,018.7,017.6,000.0,027.2,020.0,16.6,0001.3,0023.16,0015.70,0014.82
2023-12-02 09:31:00,SystemResetWarning,0819.9,5.00,000.00,018.7,017.6,000.0,027.2,020.0,16.7,0001.8,0023.49,0016.44,0015.52
2023-12-02 09:32:00,SystemResetWarning,0819.6,5.00,000.00,018.7,017.6,000.0,027.2,020.0,16.8,0002.1,0023.82,0017.27,0016.38
2023-12-02 09:33:00,SystemResetWarning,0819.7,5.00,000.00,018.7,017.6,000.0,027.2,020.0,16.8,0001.9,0025.27,0018.32,0017.42
2023-12-02 09:34:00,SystemResetWarning,0819.9,5.00,000.00,018.7,017.6,000.0,027.2,020.0,16.8,0002.4,0026.45,0019.38,0018.45
2023-12-02 09:35:00,SystemResetWarning,0819.7,4.99,000.00,018.7,017.6,000.0,027.2,020.0,16.8,0002.5,0027.36,0020.44,0019.46
2023-12-02 09:36:00,SystemResetWarning,0819.9,5.00,000.00,018.7,017.6,000.0,027.2,020.0,16.8,0002.4,0028.12,0021.26,0020.27
2023-12-02 09:37:00,SystemResetWarning,0819.8,5.00,000.00,018.7,017.6,000.0,027.2,020.0,16.8,0002.2,0028.66,0021.73,0020.76
2023-12-02 09:38:00,SystemResetWarning,0819.8,4.99,000.00,018.7,017.6,000.0,027.2,020.0,16.8,0002.0,0029.35,0022.01,0021.01
2023-12-02 09:39:00,SystemResetWarning,0819.9,4.99,000.00,018.7,017.6,000.0,027.2,020.0,16.8,0002.5,0029.89,0022.40,0021.39
2023-12-02 09:40:00,SystemResetWarning,0819.9,5.00,000.00,018.7,017.6,000.0,027.2,020.0,16.8,0002.6,0030.53,0022.66,0021.62
2023-12-02 09:41:00,SystemResetWarning,0819.9,5.00,000.00,018.7,017.6,000.0,027.2,020.3,16.7,0002.5,0030.96,0022.98,0021.91
2023-12-02 09:42:00,SystemResetWarning,0819.9,5.02,000.00,018.8,018.2,000.0,027.2,020.7,16.7,0002.4,0032.60,0023.31,0022.25
2023-12-02 09:43:00,SystemResetWarning,0820.1,4.99,000.00,019.0,018.9,000.0,027.2,021.0,16.5,0002.3,0032.96,0023.61,0022.53
2023-12-02 09:44:00,SystemResetWarning,0820.0,4.99,000.00,019.0,018.9,000.0,027.2,020.7,16.4,0002.3,0032.67,0023.72,0022.62
2023-12-02 09:45:00,SystemResetWarning,0820.2,4.99,000.00,019.0,018.8,000.0,027.2,020.6,16.3,0001.9,0032.24,0023.73,0022.61
2023-12-02 09:46:00,SystemResetWarning,0819.8,5.01,000.00,019.0,018.7,000.0,027.2,020.4,16.2,0001.5,0032.27,0023.70,0022.62
2023-12-02 09:47:00,SystemResetWarning,0819.9,5.01,000.00,019.0,018.6,000.0,027.2,020.2,16.1,0001.3,0032.21,0023.70,0022.59
2023-12-02 09:48:00,SystemResetWarning,0820.2,4.99,000.00,019.0,018.4,000.0,027.2,020.1,16.2,0001.0,0032.42,0023.76,0022.63
2023-12-02 09:49:00,SystemResetWarning,0820.2,4.99,000.00,018.9,018.3,000.0,027.2,020.1,16.3,0000.9,0031.98,0023.76,0022.64
2023-12-02 09:50:00,SystemResetWarning,0819.9,5.01,000.00,018.9,018.2,000.0,027.2,020.0,16.5,0000.4,0032.37,0023.70,0022.63
2023-12-02 09:51:00,SystemResetWarning,0819.7,5.00,000.00,018.9,018.1,000.0,027.2,020.0,16.5,0000.4,0032.37,0023.69,0022.65
2023-12-02 09:52:00,SystemResetWarning,0819.7,5.01,000.00,018.8,018.1,000.0,027.2,020.0,16.5,0000.4,0032.11,0023.60,0022.61
2023-12-02 09:53:00,SystemResetWarning,0819.8,5.00,000.00,018.8,018.0,000.0,027.3,020.0,16.3,0000.6,0031.50,0023.55,0022.57
2023-12-02 09:54:00,SystemResetWarning,0819.7,4.99,000.00,018.8,018.0,000.0,027.3,020.0,16.2,0000.5,0030.34,0023.52,0022.54
2023-12-02 09:55:00,SystemResetWarning,0819.8,4.99,000.00,018.8,017.9,000.0,027.3,020.0,16.0,0000.3,0030.22,0023.48,0022.48
2023-12-02 09:56:00,SystemResetWarning,0820.0,4.99,000.00,018.8,017.9,000.0,027.3,020.0,15.7,0000.7,0030.01,0023.42,0022.46
2023-12-02 09:57:00,SystemResetWarning,0819.8,5.00,000.00,018.8,017.9,000.0,027.3,020.0,15.6,0001.1,0030.07,0023.42,0022.46
2023-12-02 09:58:00,SystemResetWarning,0819.8,5.00,000.00,018.8,017.8,000.0,027.3,020.0,15.4,0001.6,0029.90,0023.45,0022.50
2023-12-02 09:59:00,SystemResetWarning,0820.0,5.00,000.00,018.8,017.8,000.0,027.3,020.0,15.1,0001.9,0030.03,0023.43,0022.49
